Time,TemperatureF,DewpointF,PressureIn,WindDirection,WindDirectionDegrees,WindSpeedMPH,WindSpeedGustMPH,Humidity,HourlyPrecipIn,Conditions,Clouds,dailyrainin,SoftwareType,DateUTC
2013-02-12 00:01:00,35.0,26.0,29.83,WNW,300,6.0,18.0,69,0.00,,,0.09,,2013-02-12 05:01:00,
2013-02-12 00:11:00,35.0,26.0,29.84,WNW,283,6.0,20.0,70,0.00,,,0.09,,2013-02-12 05:11:00,
2013-02-12 00:21:00,35.0,26.0,29.84,WNW,283,6.0,20.0,70,0.00,,,0.09,,2013-02-12 05:21:00,
2013-02-12 00:32:00,35.0,26.0,29.84,WNW,283,6.0,20.0,70,0.00,,,0.09,,2013-02-12 05:32:00,
2013-02-12 00:42:00,35.0,26.0,29.84,WNW,283,6.0,20.0,70,0.00,,,0.09,,2013-02-12 05:42:00,
2013-02-12 00:52:00,35.0,26.0,29.85,West,276,7.0,16.0,69,0.00,,,0.09,,2013-02-12 05:52:00,
2013-02-12 01:02:00,35.0,26.0,29.85,WNW,285,6.0,14.0,68,0.00,,,0.09,,2013-02-12 06:02:00,
2013-02-12 01:12:00,34.0,24.0,29.86,NW,312,8.0,17.0,67,0.00,,,0.09,,2013-02-12 06:12:00,
2013-02-12 01:22:00,34.0,24.0,29.86,NW,312,8.0,17.0,67,0.00,,,0.09,,2013-02-12 06:22:00,
2013-02-12 01:32:00,34.0,24.0,29.86,West,270,8.0,16.0,67,0.00,,,0.09,,2013-02-12 06:32:00,
2013-02-12 01:42:00,34.0,25.0,29.87,WSW,253,5.0,12.0,68,0.00,,,0.09,,2013-02-12 06:42:00,
2013-02-12 01:52:00,34.0,25.0,29.87,WSW,253,5.0,12.0,68,0.00,,,0.09,,2013-02-12 06:52:00,
2013-02-12 02:02:00,34.0,25.0,29.87,WSW,253,5.0,12.0,68,0.00,,,0.09,,2013-02-12 07:02:00,
2013-02-12 02:11:00,34.0,25.0,29.87,WSW,253,5.0,12.0,68,0.00,,,0.09,,2013-02-12 07:11:00,
2013-02-12 02:21:00,33.0,24.0,29.88,WNW,284,6.0,12.0,68,0.00,,,0.09,,2013-02-12 07:21:00,
2013-02-12 02:32:00,33.0,24.0,29.88,WNW,284,6.0,12.0,68,0.00,,,0.09,,2013-02-12 07:32:00,
2013-02-12 02:42:00,33.0,24.0,29.88,WNW,284,6.0,12.0,68,0.00,,,0.09,,2013-02-12 07:42:00,
2013-02-12 02:52:00,33.0,24.0,29.88,WNW,300,5.0,15.0,68,0.00,,,0.09,,2013-02-12 07:52:00,
2013-02-12 03:01:00,33.0,24.0,29.88,West,264,5.0,14.0,68,0.00,,,0.09,,2013-02-12 08:01:00,
2013-02-12 03:11:00,33.0,24.0,29.88,West,264,5.0,14.0,68,0.00,,,0.09,,2013-02-12 08:11:00,
2013-02-12 03:21:00,33.0,24.0,29.88,WNW,288,7.0,23.0,68,0.00,,,0.09,,2013-02-12 08:21:00,
2013-02-12 03:32:00,33.0,24.0,29.88,WSW,246,6.0,16.0,68,0.00,,,0.09,,2013-02-12 08:32:00,
2013-02-12 03:42:00,33.0,24.0,29.88,WSW,246,6.0,16.0,68,0.00,,,0.09,,2013-02-12 08:42:00,
2013-02-12 03:52:00,33.0,24.0,29.88,WNW,300,3.0,8.0,69,0.00,,,0.09,,2013-02-12 08:52:00,
2013-02-12 04:02:00,33.0,24.0,29.88,WSW,240,4.0,10.0,70,0.00,,,0.09,,2013-02-12 09:02:00,
2013-02-12 04:11:00,33.0,24.0,29.88,WSW,240,4.0,10.0,70,0.00,,,0.09,,2013-02-12 09:11:00,
2013-02-12 04:21:00,33.0,24.0,29.89,West,269,5.0,16.0,70,0.00,,,0.09,,2013-02-12 09:21:00,
2013-02-12 04:32:00,33.0,24.0,29.89,West,269,5.0,16.0,70,0.00,,,0.09,,2013-02-12 09:32:00,
2013-02-12 04:42:00,33.0,24.0,29.89,NW,315,8.0,15.0,70,0.00,,,0.09,,2013-02-12 09:42:00,
2013-02-12 04:52:00,33.0,24.0,29.89,NW,315,8.0,15.0,70,0.00,,,0.09,,2013-02-12 09:52:00,
2013-02-12 05:01:00,33.0,25.0,29.91,West,280,6.0,12.0,71,0.00,,,0.09,,2013-02-12 10:01:00,
2013-02-12 05:11:00,32.0,24.0,29.90,West,260,6.0,18.0,72,0.00,,,0.09,,2013-02-12 10:11:00,
2013-02-12 05:21:00,32.0,24.0,29.90,West,260,6.0,18.0,72,0.00,,,0.09,,2013-02-12 10:21:00,
2013-02-12 05:32:00,32.0,24.0,29.91,WNW,287,4.0,16.0,71,0.00,,,0.09,,2013-02-12 10:32:00,
2013-02-12 05:43:00,32.0,24.0,29.91,WNW,287,4.0,16.0,71,0.00,,,0.09,,2013-02-12 10:43:00,
2013-02-12 05:51:00,32.0,23.0,29.90,West,281,5.0,13.0,70,0.00,,,0.09,,2013-02-12 10:51:00,
2013-02-12 06:01:00,32.0,23.0,29.90,WNW,288,10.0,25.0,69,0.00,,,0.09,,2013-02-12 11:01:00,
2013-02-12 06:11:00,32.0,23.0,29.90,WNW,288,10.0,25.0,69,0.00,,,0.09,,2013-02-12 11:11:00,
2013-02-12 06:22:00,32.0,23.0,29.90,WNW,288,10.0,25.0,69,0.00,,,0.09,,2013-02-12 11:22:00,
2013-02-12 06:32:00,32.0,23.0,29.90,WNW,293,8.0,25.0,70,0.00,,,0.09,,2013-02-12 11:32:00,
2013-02-12 06:42:00,32.0,23.0,29.90,WNW,293,8.0,25.0,70,0.00,,,0.09,,2013-02-12 11:42:00,
2013-02-12 06:53:00,31.0,23.0,29.91,WNW,290,9.0,18.0,71,0.00,,,0.09,,2013-02-12 11:53:00,
2013-02-12 07:02:00,31.0,23.0,29.92,WNW,291,8.0,18.0,72,0.00,,,0.09,,2013-02-12 12:02:00,
2013-02-12 07:11:00,31.0,23.0,29.93,WSW,252,6.0,23.0,72,0.00,,,0.09,,2013-02-12 12:11:00,
2013-02-12 07:21:00,31.0,23.0,29.93,WSW,252,6.0,23.0,72,0.00,,,0.09,,2013-02-12 12:21:00,
2013-02-12 07:32:00,31.0,23.0,29.93,West,278,9.0,19.0,72,0.00,,,0.09,,2013-02-12 12:32:00,
2013-02-12 07:42:00,31.0,23.0,29.93,West,278,9.0,19.0,72,0.00,,,0.09,,2013-02-12 12:42:00,
2013-02-12 07:52:00,31.0,23.0,29.95,NW,311,6.0,18.0,72,0.00,,,0.09,,2013-02-12 12:52:00,
2013-02-12 08:02:00,31.0,23.0,29.95,WNW,288,6.0,12.0,71,0.00,,,0.09,,2013-02-12 13:02:00,
2013-02-12 08:11:00,31.0,23.0,29.95,WNW,288,6.0,12.0,71,0.00,,,0.09,,2013-02-12 13:11:00,
2013-02-12 08:22:00,31.0,23.0,29.95,WNW,288,6.0,12.0,71,0.00,,,0.09,,2013-02-12 13:22:00,
2013-02-12 08:32:00,31.0,22.0,29.96,West,259,7.0,19.0,70,0.00,,,0.09,,2013-02-12 13:32:00,
2013-02-12 08:42:00,31.0,22.0,29.96,West,259,7.0,19.0,70,0.00,,,0.09,,2013-02-12 13:42:00,
2013-02-12 08:52:00,31.0,22.0,29.97,WSW,246,8.0,19.0,70,0.00,,,0.09,,2013-02-12 13:52:00,
2013-02-12 09:01:00,31.0,22.0,29.98,NW,316,9.0,15.0,70,0.00,,,0.09,,2013-02-12 14:01:00,
2013-02-12 09:12:00,31.0,22.0,29.98,NW,316,9.0,15.0,70,0.00,,,0.09,,2013-02-12 14:12:00,
2013-02-12 09:22:00,31.0,22.0,29.98,WNW,291,7.0,17.0,69,0.00,,,0.09,,2013-02-12 14:22:00,
2013-02-12 09:32:00,31.0,22.0,29.98,NW,326,7.0,16.0,70,0.00,,,0.08,,2013-02-12 14:32:00,
2013-02-12 09:42:00,31.0,22.0,29.98,NW,326,7.0,16.0,70,0.00,,,0.08,,2013-02-12 14:42:00,
2013-02-12 09:52:00,31.0,22.0,30.00,WNW,300,5.0,12.0,70,0.00,,,0.08,,2013-02-12 14:52:00,
2013-02-12 10:02:00,31.0,22.0,30.00,WNW,300,5.0,12.0,70,0.00,,,0.08,,2013-02-12 15:02:00,
2013-02-12 10:11:00,31.0,23.0,30.01,NW,309,8.0,16.0,71,0.00,,,0.08,,2013-02-12 15:11:00,
2013-02-12 10:21:00,31.0,23.0,30.01,NW,309,8.0,16.0,71,0.00,,,0.08,,2013-02-12 15:21:00,
2013-02-12 10:32:00,31.0,23.0,30.01,NW,326,5.0,16.0,72,0.00,,,0.02,,2013-02-12 15:32:00,
2013-02-12 10:42:00,31.0,23.0,30.01,NW,326,5.0,16.0,72,0.00,,,0.02,,2013-02-12 15:42:00,
2013-02-12 10:52:00,30.0,22.0,30.01,West,277,7.0,14.0,72,0.00,,,0.02,,2013-02-12 15:52:00,
2013-02-12 11:02:00,30.0,22.0,30.02,WNW,288,4.0,17.0,71,0.00,,,0.02,,2013-02-12 16:02:00,
2013-02-12 11:11:00,30.0,22.0,30.02,WNW,288,4.0,17.0,71,0.00,,,0.02,,2013-02-12 16:11:00,
2013-02-12 11:22:00,30.0,22.0,30.02,WNW,300,7.0,13.0,72,0.00,,,0.01,,2013-02-12 16:22:00,
2013-02-12 11:32:00,30.0,22.0,30.02,WNW,287,4.0,10.0,73,0.00,,,0.01,,2013-02-12 16:32:00,
2013-02-12 11:42:00,30.0,22.0,30.02,WNW,287,4.0,10.0,73,0.00,,,0.01,,2013-02-12 16:42:00,
2013-02-12 11:52:00,30.0,23.0,30.03,WSW,248,3.0,13.0,75,0.00,,,0.01,,2013-02-12 16:52:00,
2013-02-12 12:01:00,30.0,23.0,30.03,WNW,297,5.0,10.0,75,0.00,,,0.01,,2013-02-12 17:01:00,
2013-02-12 12:12:00,30.0,23.0,30.03,WNW,297,5.0,10.0,75,0.00,,,0.01,,2013-02-12 17:12:00,
2013-02-12 12:21:00,30.0,23.0,30.03,WNW,297,5.0,10.0,75,0.00,,,0.01,,2013-02-12 17:21:00,
2013-02-12 12:32:00,31.0,23.0,30.02,NW,316,7.0,15.0,71,0.00,,,0.01,,2013-02-12 17:32:00,
2013-02-12 12:42:00,31.0,23.0,30.02,NW,316,7.0,15.0,71,0.00,,,0.01,,2013-02-12 17:42:00,
2013-02-12 12:52:00,31.0,22.0,30.02,NW,323,6.0,14.0,70,0.00,,,0.01,,2013-02-12 17:52:00,
2013-02-12 13:02:00,32.0,23.0,30.01,NW,312,5.0,14.0,69,0.00,,,0.01,,2013-02-12 18:02:00,
2013-02-12 13:12:00,32.0,23.0,30.01,WSW,240,4.0,11.0,69,0.00,,,0.00,,2013-02-12 18:12:00,
2013-02-12 13:23:00,32.0,23.0,30.01,WSW,240,4.0,11.0,69,0.00,,,0.00,,2013-02-12 18:23:00,
2013-02-12 13:32:00,32.0,23.0,29.99,WNW,297,6.0,13.0,69,0.00,,,0.00,,2013-02-12 18:32:00,
2013-02-12 13:41:00,32.0,23.0,29.99,WNW,297,6.0,13.0,69,0.00,,,0.00,,2013-02-12 18:41:00,
2013-02-12 13:51:00,31.0,22.0,29.99,SW,224,3.0,12.0,70,0.00,,,0.00,,2013-02-12 18:51:00,
2013-02-12 14:02:00,31.0,22.0,29.99,SW,224,3.0,12.0,70,0.00,,,0.00,,2013-02-12 19:02:00,
2013-02-12 14:11:00,31.0,22.0,29.99,SW,224,3.0,12.0,70,0.00,,,0.00,,2013-02-12 19:11:00,
2013-02-12 14:21:00,32.0,24.0,29.99,WNW,285,2.0,8.0,72,0.00,,,0.00,,2013-02-12 19:21:00,
2013-02-12 14:31:00,32.0,24.0,29.99,WNW,295,4.0,12.0,71,0.00,,,0.00,,2013-02-12 19:31:00,
2013-02-12 14:42:00,32.0,24.0,29.98,West,269,6.0,11.0,72,0.00,,,0.00,,2013-02-12 19:42:00,
2013-02-12 14:51:00,32.0,24.0,29.98,West,269,6.0,11.0,72,0.00,,,0.00,,2013-02-12 19:51:00,
2013-02-12 15:01:00,33.0,25.0,29.94,NW,304,5.0,11.0,71,0.00,,,0.00,,2013-02-12 20:01:00,
2013-02-12 15:11:00,33.0,25.0,29.94,NW,304,5.0,11.0,71,0.00,,,0.00,,2013-02-12 20:11:00,
2013-02-12 15:21:00,33.0,24.0,29.93,West,277,3.0,9.0,70,0.00,,,0.00,,2013-02-12 20:21:00,
2013-02-12 15:32:00,33.0,24.0,29.92,NNW,338,5.0,10.0,69,0.00,,,0.00,,2013-02-12 20:32:00,
2013-02-12 15:41:00,33.0,24.0,29.92,NNW,338,5.0,10.0,69,0.00,,,0.00,,2013-02-12 20:41:00,
2013-02-12 15:52:00,33.0,25.0,29.92,WNW,290,3.0,9.0,71,0.00,,,0.00,,2013-02-12 20:52:00,
2013-02-12 16:01:00,33.0,25.0,29.92,WNW,290,3.0,9.0,71,0.00,,,0.00,,2013-02-12 21:01:00,
2013-02-12 16:11:00,33.0,25.0,29.92,WNW,290,3.0,9.0,71,0.00,,,0.00,,2013-02-12 21:11:00,
2013-02-12 16:21:00,33.0,24.0,29.94,NW,309,4.0,9.0,70,0.00,,,0.00,,2013-02-12 21:21:00,
2013-02-12 16:31:00,33.0,24.0,29.94,NW,309,4.0,9.0,70,0.00,,,0.00,,2013-02-12 21:31:00,
2013-02-12 16:42:00,32.0,24.0,29.99,WNW,283,3.0,16.0,71,0.00,,,0.00,,2013-02-12 21:42:00,
2013-02-12 16:51:00,32.0,24.0,29.99,WNW,283,3.0,16.0,71,0.00,,,0.00,,2013-02-12 21:51:00,
2013-02-12 17:01:00,33.0,25.0,29.99,NW,304,4.0,8.0,72,0.00,,,0.00,,2013-02-12 22:01:00,
2013-02-12 17:12:00,33.0,25.0,29.99,NW,304,4.0,8.0,72,0.00,,,0.00,,2013-02-12 22:12:00,
2013-02-12 17:21:00,32.0,24.0,30.01,NW,306,5.0,11.0,71,0.00,,,0.00,,2013-02-12 22:21:00,
2013-02-12 17:32:00,32.0,24.0,30.02,NW,304,5.0,12.0,72,0.00,,,0.00,,2013-02-12 22:32:00,
2013-02-12 17:42:00,32.0,24.0,30.02,NW,304,5.0,12.0,72,0.00,,,0.00,,2013-02-12 22:42:00,
2013-02-12 17:52:00,32.0,24.0,30.02,West,281,3.0,8.0,73,0.00,,,0.00,,2013-02-12 22:52:00,
2013-02-12 18:01:00,32.0,24.0,30.02,West,281,3.0,8.0,73,0.00,,,0.00,,2013-02-12 23:01:00,
2013-02-12 18:11:00,31.0,23.0,30.02,WNW,285,5.0,8.0,73,0.00,,,0.00,,2013-02-12 23:11:00,
2013-02-12 18:21:00,31.0,23.0,30.02,WNW,285,5.0,8.0,73,0.00,,,0.00,,2013-02-12 23:21:00,
2013-02-12 18:32:00,30.0,23.0,30.02,WNW,298,1.0,5.0,74,0.00,,,0.00,,2013-02-12 23:32:00,
2013-02-12 18:42:00,30.0,23.0,30.02,WNW,298,1.0,5.0,74,0.00,,,0.00,,2013-02-12 23:42:00,
2013-02-12 18:52:00,30.0,23.0,30.02,WNW,298,1.0,5.0,74,0.00,,,0.00,,2013-02-12 23:52:00,
2013-02-12 19:02:00,29.0,22.0,30.01,NW,307,4.0,7.0,76,0.00,,,0.00,,2013-02-13 00:02:00,
2013-02-12 19:11:00,29.0,22.0,30.01,NW,307,4.0,7.0,76,0.00,,,0.00,,2013-02-13 00:11:00,
2013-02-12 19:22:00,29.0,22.0,30.01,West,276,2.0,8.0,75,0.00,,,0.00,,2013-02-13 00:22:00,
2013-02-12 19:32:00,29.0,22.0,30.01,NW,315,2.0,6.0,76,0.00,,,0.00,,2013-02-13 00:32:00,
2013-02-12 19:42:00,29.0,22.0,30.01,NW,315,2.0,6.0,76,0.00,,,0.00,,2013-02-13 00:42:00,
2013-02-12 19:52:00,29.0,22.0,30.01,NW,315,2.0,6.0,76,0.00,,,0.00,,2013-02-13 00:52:00,
2013-02-12 20:01:00,29.0,22.0,30.01,NW,315,2.0,6.0,76,0.00,,,0.00,,2013-02-13 01:01:00,
2013-02-12 20:11:00,29.0,22.0,30.01,NW,315,2.0,6.0,76,0.00,,,0.00,,2013-02-13 01:11:00,
2013-02-12 20:21:00,27.0,21.0,29.99,WNW,300,1.0,2.0,78,0.00,,,0.00,,2013-02-13 01:21:00,
2013-02-12 20:32:00,26.0,21.0,29.99,NW,306,0.0,3.0,80,0.00,,,0.00,,2013-02-13 01:32:00,
2013-02-12 20:42:00,26.0,21.0,29.99,NW,306,0.0,3.0,80,0.00,,,0.00,,2013-02-13 01:42:00,
2013-02-12 20:51:00,26.0,21.0,29.98,WNW,300,0.0,2.0,81,0.00,,,0.00,,2013-02-13 01:51:00,
2013-02-12 21:01:00,24.0,20.0,29.99,WNW,291,1.0,2.0,84,0.00,,,0.00,,2013-02-13 02:01:00,
2013-02-12 21:11:00,24.0,20.0,29.99,WNW,291,1.0,2.0,84,0.00,,,0.00,,2013-02-13 02:11:00,
2013-02-12 21:22:00,25.0,21.0,29.98,WNW,303,1.0,4.0,85,0.00,,,0.00,,2013-02-13 02:22:00,
2013-02-12 21:32:00,25.0,20.0,29.98,NW,311,1.0,3.0,82,0.00,,,0.00,,2013-02-13 02:32:00,
2013-02-12 21:42:00,25.0,20.0,29.98,NW,311,1.0,3.0,82,0.00,,,0.00,,2013-02-13 02:42:00,
2013-02-12 21:52:00,25.0,20.0,29.98,NW,311,1.0,3.0,82,0.00,,,0.00,,2013-02-13 02:52:00,
2013-02-12 22:01:00,25.0,21.0,29.97,NW,304,0.0,5.0,83,0.00,,,0.00,,2013-02-13 03:01:00,
2013-02-12 22:11:00,25.0,20.0,29.98,NW,306,0.0,1.0,81,0.00,,,0.00,,2013-02-13 03:11:00,
2013-02-12 22:21:00,25.0,20.0,29.98,NW,306,0.0,1.0,81,0.00,,,0.00,,2013-02-13 03:21:00,
2013-02-12 22:32:00,24.0,20.0,29.98,WNW,285,0.0,3.0,83,0.00,,,0.00,,2013-02-13 03:32:00,
2013-02-12 22:42:00,24.0,20.0,29.98,WNW,285,0.0,3.0,83,0.00,,,0.00,,2013-02-13 03:42:00,
2013-02-12 22:51:00,23.0,19.0,29.98,WNW,293,0.0,1.0,83,0.00,,,0.00,,2013-02-13 03:51:00,
2013-02-12 23:01:00,23.0,20.0,29.97,SSW,197,0.0,1.0,87,0.00,,,0.00,,2013-02-13 04:01:00,
2013-02-12 23:11:00,23.0,20.0,29.97,SSW,197,0.0,1.0,87,0.00,,,0.00,,2013-02-13 04:11:00,
2013-02-12 23:21:00,23.0,19.0,29.97,SW,222,0.0,1.0,86,0.00,,,0.00,,2013-02-13 04:21:00,
2013-02-12 23:32:00,23.0,19.0,29.97,SW,222,0.0,1.0,86,0.00,,,0.00,,2013-02-13 04:32:00,
2013-02-12 23:42:00,23.0,19.0,29.97,SW,222,0.0,1.0,86,0.00,,,0.00,,2013-02-13 04:42:00,
2013-02-12 23:52:00,22.0,19.0,29.97,WSW,253,0.0,1.0,88,0.00,,,0.00,,2013-02-13 04:52:00,